AAL1840 KSAT-KCLT

Flight info

Callsign AAL1840
Flight time 2h 11m
Altitude 35000
Route SNIDR2 MOLLR KH03G AEX WINAP STNGA BESTT JONZE5
Aircraft A321/M-SDE3FGHIRWY/LB1

Departure

Time 2026-04-21 14:32
Airport San Antonio International Airport (KSAT)

Arrival

Time 2026-04-21 16:43
Airport Charlotte Douglas International Airport (KCLT)
Time Latitude Longitude Altitude Speed Heading
2026-04-21 14:07 29.52880 -98.47140 791 ft 0 kts 286°
2026-04-21 14:22 29.52880 -98.47139 792 ft 2 kts 286°
2026-04-21 14:22 29.52877 -98.47113 791 ft 4 kts 245°
2026-04-21 14:22 29.52894 -98.47093 791 ft 4 kts 233°
2026-04-21 14:22 29.52897 -98.47070 791 ft 4 kts 289°
2026-04-21 14:23 29.52884 -98.47051 790 ft 4 kts 356°
2026-04-21 14:23 29.52860 -98.47058 790 ft 4 kts 27°
2026-04-21 14:23 29.52836 -98.47073 790 ft 4 kts 31°
2026-04-21 14:23 29.52829 -98.47078 790 ft 0 kts 30°
2026-04-21 14:25 29.52833 -98.47075 790 ft 2 kts 26°
2026-04-21 14:25 29.52869 -98.47062 791 ft 8 kts 18°
2026-04-21 14:25 29.52925 -98.47044 791 ft 9 kts
2026-04-21 14:25 29.52983 -98.47081 791 ft 11 kts 313°
2026-04-21 14:26 29.53035 -98.47146 791 ft 11 kts 311°
2026-04-21 14:26 29.53085 -98.47212 793 ft 10 kts 311°
2026-04-21 14:26 29.53130 -98.47270 795 ft 10 kts 311°
2026-04-21 14:26 29.53176 -98.47330 796 ft 11 kts 312°
2026-04-21 14:27 29.53231 -98.47398 795 ft 13 kts 312°
2026-04-21 14:27 29.53290 -98.47474 796 ft 13 kts 312°
2026-04-21 14:27 29.53351 -98.47552 796 ft 13 kts 312°
2026-04-21 14:27 29.53417 -98.47636 795 ft 16 kts 311°
2026-04-21 14:28 29.53491 -98.47732 795 ft 16 kts 311°
2026-04-21 14:28 29.53563 -98.47825 797 ft 15 kts 311°
2026-04-21 14:28 29.53635 -98.47919 798 ft 16 kts 311°
2026-04-21 14:28 29.53702 -98.48008 802 ft 14 kts 311°
2026-04-21 14:29 29.53763 -98.48084 804 ft 13 kts 313°
2026-04-21 14:29 29.53823 -98.48160 804 ft 13 kts 311°
2026-04-21 14:29 29.53886 -98.48241 805 ft 13 kts 311°
2026-04-21 14:29 29.53945 -98.48318 807 ft 13 kts 311°
2026-04-21 14:30 29.54007 -98.48399 806 ft 15 kts 312°
2026-04-21 14:30 29.54079 -98.48492 805 ft 16 kts 311°
2026-04-21 14:30 29.54141 -98.48572 805 ft 8 kts 312°
2026-04-21 14:30 29.54192 -98.48595 805 ft 9 kts 11°
2026-04-21 14:31 29.54243 -98.48557 805 ft 10 kts 60°
2026-04-21 14:31 29.54238 -98.48508 805 ft 5 kts 129°
2026-04-21 14:31 29.54234 -98.48502 805 ft 0 kts 130°
2026-04-21 14:31 29.54114 -98.48349 805 ft 62 kts 131°
2026-04-21 14:32 29.53671 -98.47778 797 ft 127 kts 131°
2026-04-21 14:32 29.52966 -98.46868 882 ft 168 kts 130°
2026-04-21 14:32 29.52253 -98.45985 1843 ft 143 kts 134°
2026-04-21 14:32 29.51731 -98.45004 2444 ft 151 kts 106°
2026-04-21 14:33 29.51888 -98.43743 2836 ft 177 kts 64°
2026-04-21 14:33 29.52590 -98.42485 3058 ft 198 kts 59°
2026-04-21 14:33 29.53397 -98.41101 3187 ft 219 kts 58°
2026-04-21 14:33 29.54280 -98.39591 3365 ft 234 kts 58°
2026-04-21 14:34 29.55200 -98.38019 3657 ft 241 kts 58°
2026-04-21 14:34 29.56172 -98.36349 3756 ft 265 kts 58°
2026-04-21 14:34 29.57226 -98.34521 4172 ft 279 kts 59°
2026-04-21 14:34 29.58308 -98.32642 4864 ft 284 kts 58°
2026-04-21 14:35 29.59409 -98.30732 5559 ft 289 kts 59°
2026-04-21 14:35 29.60516 -98.28812 6218 ft 294 kts 59°
2026-04-21 14:35 29.61650 -98.26838 6873 ft 298 kts 59°
2026-04-21 14:35 29.62623 -98.24732 7513 ft 300 kts 72°
2026-04-21 14:36 29.63150 -98.22419 8183 ft 299 kts 86°
2026-04-21 14:36 29.63369 -98.20034 8864 ft 302 kts 87°
2026-04-21 14:36 29.63588 -98.17618 9549 ft 306 kts 86°
2026-04-21 14:36 29.63816 -98.15172 10192 ft 310 kts 86°
2026-04-21 14:37 29.64050 -98.12691 10797 ft 315 kts 85°
2026-04-21 14:37 29.64290 -98.10107 10981 ft 336 kts 85°
2026-04-21 14:37 29.64544 -98.07353 11104 ft 357 kts 85°
2026-04-21 14:37 29.64811 -98.04464 11481 ft 367 kts 85°
2026-04-21 14:38 29.65061 -98.01529 12033 ft 372 kts 88°
2026-04-21 14:38 29.65115 -97.98542 12619 ft 375 kts 90°
2026-04-21 14:38 29.65157 -97.95526 13204 ft 379 kts 90°
2026-04-21 14:38 29.65199 -97.92482 13751 ft 383 kts 90°
2026-04-21 14:39 29.65241 -97.89409 14291 ft 387 kts 90°
2026-04-21 14:39 29.65284 -97.86308 14818 ft 390 kts 89°
2026-04-21 14:39 29.65331 -97.83176 15352 ft 393 kts 89°
2026-04-21 14:39 29.65375 -97.80015 15887 ft 397 kts 89°
2026-04-21 14:40 29.65414 -97.76837 16422 ft 400 kts 89°
2026-04-21 14:40 29.65448 -97.73624 16966 ft 403 kts 89°
2026-04-21 14:40 29.65482 -97.70385 17506 ft 407 kts 89°
2026-04-21 14:40 29.65516 -97.67120 18042 ft 410 kts 89°
2026-04-21 14:41 29.65549 -97.63831 18555 ft 413 kts 89°
2026-04-21 14:41 29.65582 -97.60508 18990 ft 418 kts 89°
2026-04-21 14:41 29.65615 -97.57151 19420 ft 422 kts 89°
2026-04-21 14:41 29.65646 -97.53762 19827 ft 426 kts 89°
2026-04-21 14:42 29.65679 -97.50334 20234 ft 430 kts 89°
2026-04-21 14:42 29.65710 -97.46928 20638 ft 434 kts 89°
2026-04-21 14:42 29.65741 -97.43438 21048 ft 439 kts 89°
2026-04-21 14:42 29.65770 -97.39916 21468 ft 443 kts 89°
2026-04-21 14:43 29.65799 -97.36355 21898 ft 447 kts 89°
2026-04-21 14:43 29.65829 -97.32766 22316 ft 451 kts 89°
2026-04-21 14:43 29.65855 -97.29141 22708 ft 455 kts 89°
2026-04-21 14:43 29.65883 -97.25485 23082 ft 459 kts 89°
2026-04-21 14:44 29.65911 -97.21798 23451 ft 463 kts 89°
2026-04-21 14:44 29.65934 -97.18080 23795 ft 467 kts 89°
2026-04-21 14:44 29.65953 -97.14335 24079 ft 470 kts 89°
2026-04-21 14:44 29.65973 -97.10564 24401 ft 473 kts 89°
2026-04-21 14:45 29.65997 -97.06772 24717 ft 476 kts 89°
2026-04-21 14:45 29.66021 -97.02962 25035 ft 478 kts 89°
2026-04-21 14:45 29.66043 -96.99132 25330 ft 481 kts 89°
2026-04-21 14:45 29.66062 -96.95280 25630 ft 483 kts 89°
2026-04-21 14:46 29.66080 -96.91408 25938 ft 486 kts 89°
2026-04-21 14:46 29.66100 -96.87515 26243 ft 488 kts 89°
2026-04-21 14:46 29.66121 -96.83606 26529 ft 491 kts 89°
2026-04-21 14:46 29.66141 -96.79676 26853 ft 492 kts 89°
2026-04-21 14:47 29.66160 -96.75729 27179 ft 495 kts 89°
2026-04-21 14:47 29.66173 -96.71763 27497 ft 497 kts 89°
2026-04-21 14:47 29.66185 -96.67776 27773 ft 500 kts 90°
2026-04-21 14:47 29.66196 -96.63823 28054 ft 503 kts 89°
2026-04-21 14:48 29.66208 -96.59785 28321 ft 506 kts 89°
2026-04-21 14:48 29.66219 -96.55735 28667 ft 508 kts 89°
2026-04-21 14:48 29.66228 -96.51663 28944 ft 511 kts 89°
2026-04-21 14:48 29.66237 -96.47567 29218 ft 513 kts 90°
2026-04-21 14:49 29.66239 -96.43459 29461 ft 516 kts 90°
2026-04-21 14:49 29.66232 -96.39320 29708 ft 519 kts 90°
2026-04-21 14:49 29.66218 -96.35162 29949 ft 522 kts 90°
2026-04-21 14:49 29.66201 -96.30982 30196 ft 524 kts 90°
2026-04-21 14:50 29.66192 -96.28143 30353 ft 526 kts 90°
2026-04-21 14:50 29.66181 -96.22568 30661 ft 528 kts 90°
2026-04-21 14:50 29.66172 -96.18338 30923 ft 529 kts 90°
2026-04-21 14:50 29.66162 -96.14116 31247 ft 528 kts 90°
2026-04-21 14:51 29.66149 -96.09897 31563 ft 527 kts 90°
2026-04-21 14:51 29.66133 -96.05681 31894 ft 527 kts 90°
2026-04-21 14:51 29.66115 -96.01478 32193 ft 527 kts 90°
2026-04-21 14:51 29.66096 -95.97276 32526 ft 526 kts 90°
2026-04-21 14:52 29.66083 -95.94488 32743 ft 525 kts 90°
2026-04-21 14:52 29.66063 -95.90291 33092 ft 524 kts 90°
2026-04-21 14:52 29.66042 -95.86097 33467 ft 523 kts 89°
2026-04-21 14:52 29.66021 -95.81923 33794 ft 522 kts 89°
2026-04-21 14:53 29.66000 -95.77753 34149 ft 521 kts 89°
2026-04-21 14:53 29.65978 -95.73595 34444 ft 520 kts 89°
2026-04-21 14:53 29.65947 -95.69441 34717 ft 519 kts 90°
2026-04-21 14:53 29.65903 -95.65291 34959 ft 519 kts 90°
2026-04-21 14:54 29.65853 -95.61137 35209 ft 519 kts 90°
2026-04-21 14:54 29.65802 -95.56999 35471 ft 518 kts 90°
2026-04-21 14:54 29.65757 -95.52856 35736 ft 518 kts 90°
2026-04-21 14:54 29.65722 -95.48723 35992 ft 517 kts 90°
2026-04-21 14:55 29.65695 -95.44595 36246 ft 516 kts 90°
2026-04-21 14:55 29.65668 -95.40468 36490 ft 516 kts 90°
2026-04-21 14:55 29.65653 -95.36354 36726 ft 515 kts 87°
2026-04-21 14:55 29.65999 -95.32273 36955 ft 512 kts 77°
2026-04-21 14:56 29.66861 -95.28313 37090 ft 510 kts 67°
2026-04-21 14:56 29.68211 -95.24568 37248 ft 505 kts 58°
2026-04-21 14:56 29.69987 -95.21117 37266 ft 499 kts 49°
2026-04-21 14:57 29.74183 -95.14805 37262 ft 497 kts 46°
2026-04-21 14:57 29.78411 -95.08515 37246 ft 497 kts 47°
2026-04-21 14:58 29.82629 -95.02205 37261 ft 497 kts 47°
2026-04-21 14:58 29.86842 -94.95880 37262 ft 498 kts 47°
2026-04-21 14:59 29.91057 -94.89551 37278 ft 498 kts 46°
2026-04-21 14:59 29.95279 -94.83202 37270 ft 499 kts 47°
2026-04-21 15:00 29.99473 -94.76890 37277 ft 499 kts 47°
2026-04-21 15:00 30.03699 -94.70525 37307 ft 500 kts 47°
2026-04-21 15:01 30.07926 -94.64140 37282 ft 501 kts 47°
2026-04-21 15:01 30.12145 -94.57733 37281 ft 501 kts 47°
2026-04-21 15:02 30.16378 -94.51321 37284 ft 502 kts 47°
2026-04-21 15:02 30.20615 -94.44913 37281 ft 502 kts 46°
2026-04-21 15:03 30.24845 -94.38487 37287 ft 502 kts 47°
2026-04-21 15:03 30.29060 -94.32044 37287 ft 502 kts 47°
2026-04-21 15:04 30.33282 -94.25599 37314 ft 502 kts 47°
2026-04-21 15:04 30.37510 -94.19155 37301 ft 503 kts 47°
2026-04-21 15:05 30.41735 -94.12695 37294 ft 503 kts 47°
2026-04-21 15:05 30.48067 -94.02988 37295 ft 503 kts 47°
2026-04-21 15:06 30.51960 -93.96202 37296 ft 509 kts 54°
2026-04-21 15:06 30.55568 -93.89150 37294 ft 508 kts 54°
2026-04-21 15:07 30.59190 -93.82102 37297 ft 508 kts 54°
2026-04-21 15:07 30.62813 -93.75042 37307 ft 508 kts 54°
2026-04-21 15:08 30.66417 -93.67976 37308 ft 508 kts 54°
2026-04-21 15:08 30.70017 -93.60914 37318 ft 508 kts 54°
2026-04-21 15:09 30.73619 -93.53843 37325 ft 508 kts 54°
2026-04-21 15:09 30.77192 -93.46814 37331 ft 508 kts 54°
2026-04-21 15:10 30.80780 -93.39731 37334 ft 508 kts 54°
2026-04-21 15:10 30.84367 -93.32646 37334 ft 508 kts 54°
2026-04-21 15:11 30.87950 -93.25552 37334 ft 508 kts 54°
2026-04-21 15:11 30.91535 -93.18464 37339 ft 508 kts 54°
2026-04-21 15:12 30.95118 -93.11367 37332 ft 508 kts 54°
2026-04-21 15:12 30.98685 -93.04248 37343 ft 509 kts 54°
2026-04-21 15:13 31.02255 -92.97121 37340 ft 509 kts 54°
2026-04-21 15:13 31.05829 -92.89995 37348 ft 509 kts 54°
2026-04-21 15:14 31.09395 -92.82864 37356 ft 509 kts 54°
2026-04-21 15:14 31.12950 -92.75728 37355 ft 509 kts 55°
2026-04-21 15:15 31.16473 -92.68632 37342 ft 509 kts 55°
2026-04-21 15:15 31.20021 -92.61482 37344 ft 508 kts 54°
2026-04-21 15:16 31.23571 -92.54339 37363 ft 508 kts 55°
2026-04-21 15:16 31.27089 -92.47175 37352 ft 509 kts 56°
2026-04-21 15:17 31.30443 -92.39878 37334 ft 510 kts 58°
2026-04-21 15:17 31.33717 -92.32520 37340 ft 510 kts 58°
2026-04-21 15:18 31.37022 -92.25183 37346 ft 509 kts 57°
2026-04-21 15:18 31.40358 -92.17878 37345 ft 509 kts 57°
2026-04-21 15:19 31.43694 -92.10572 37339 ft 508 kts 57°
2026-04-21 15:19 31.47007 -92.03258 37337 ft 508 kts 57°
2026-04-21 15:20 31.50308 -91.95935 37338 ft 508 kts 57°
2026-04-21 15:20 31.53606 -91.88614 37346 ft 508 kts 57°
2026-04-21 15:21 31.56896 -91.81298 37351 ft 506 kts 57°
2026-04-21 15:21 31.60171 -91.74005 37349 ft 505 kts 57°
2026-04-21 15:22 31.63440 -91.66720 37351 ft 504 kts 57°
2026-04-21 15:22 31.66697 -91.59429 37344 ft 504 kts 58°
2026-04-21 15:23 31.69927 -91.52188 37353 ft 504 kts 58°
2026-04-21 15:23 31.73182 -91.44908 37360 ft 503 kts 58°
2026-04-21 15:24 31.76427 -91.37631 37358 ft 502 kts 58°
2026-04-21 15:24 31.79657 -91.30353 37374 ft 502 kts 58°
2026-04-21 15:25 31.82881 -91.23069 37371 ft 502 kts 58°
2026-04-21 15:25 31.86095 -91.15782 37375 ft 502 kts 58°
2026-04-21 15:26 31.89308 -91.08507 37368 ft 501 kts 58°
2026-04-21 15:26 31.92514 -91.01231 37365 ft 500 kts 58°
2026-04-21 15:27 31.95709 -90.93970 37357 ft 499 kts 58°
2026-04-21 15:27 31.98895 -90.86709 37361 ft 499 kts 58°
2026-04-21 15:28 32.02072 -90.79450 37355 ft 499 kts 58°
2026-04-21 15:28 32.05247 -90.72175 37353 ft 498 kts 58°
2026-04-21 15:29 32.08384 -90.64961 37379 ft 498 kts 58°
2026-04-21 15:29 32.11547 -90.57704 37365 ft 497 kts 58°
2026-04-21 15:30 32.14701 -90.50450 37364 ft 496 kts 58°
2026-04-21 15:30 32.17836 -90.43196 37362 ft 496 kts 58°
2026-04-21 15:31 32.20970 -90.35949 37356 ft 495 kts 58°
2026-04-21 15:31 32.24101 -90.28723 37360 ft 494 kts 58°
2026-04-21 15:32 32.27215 -90.21496 37357 ft 493 kts 58°
2026-04-21 15:32 32.30311 -90.14273 37351 ft 492 kts 58°
2026-04-21 15:33 32.33411 -90.07053 37349 ft 492 kts 58°
2026-04-21 15:33 32.36492 -89.99885 37373 ft 492 kts 59°
2026-04-21 15:34 32.39569 -89.92675 37355 ft 490 kts 59°
2026-04-21 15:34 32.42637 -89.85472 37344 ft 490 kts 59°
2026-04-21 15:35 32.45699 -89.78275 37341 ft 489 kts 59°
2026-04-21 15:35 32.48765 -89.71089 37337 ft 489 kts 59°
2026-04-21 15:36 32.51817 -89.63902 37318 ft 488 kts 59°
2026-04-21 15:36 32.54856 -89.56698 37317 ft 488 kts 59°
2026-04-21 15:37 32.57886 -89.49497 37302 ft 488 kts 59°
2026-04-21 15:37 32.60922 -89.42289 37303 ft 488 kts 59°
2026-04-21 15:38 32.63750 -89.34972 37267 ft 489 kts 69°
2026-04-21 15:38 32.65768 -89.27262 37266 ft 489 kts 70°
2026-04-21 15:39 32.67782 -89.19546 37253 ft 490 kts 70°
2026-04-21 15:39 32.69792 -89.11814 37254 ft 490 kts 70°
2026-04-21 15:40 32.71803 -89.04078 37251 ft 490 kts 70°
2026-04-21 15:40 32.73815 -88.96339 37234 ft 491 kts 70°
2026-04-21 15:41 32.75471 -88.89899 37230 ft 491 kts 70°
2026-04-21 15:41 32.77458 -88.82146 37227 ft 491 kts 70°
2026-04-21 15:42 32.79453 -88.74391 37273 ft 491 kts 70°
2026-04-21 15:42 32.81449 -88.66631 37271 ft 491 kts 70°
2026-04-21 15:43 32.83440 -88.58864 37356 ft 491 kts 70°
2026-04-21 15:43 32.85417 -88.51082 37361 ft 492 kts 70°
2026-04-21 15:44 32.87387 -88.43296 37381 ft 492 kts 70°
2026-04-21 15:44 32.89359 -88.35500 37390 ft 492 kts 70°
2026-04-21 15:45 32.91328 -88.27692 37381 ft 493 kts 70°
2026-04-21 15:45 32.93296 -88.19869 37375 ft 493 kts 70°
2026-04-21 15:46 32.95248 -88.12096 37375 ft 493 kts 70°
2026-04-21 15:46 32.97214 -88.04264 37384 ft 494 kts 70°
2026-04-21 15:47 32.99183 -87.96374 37372 ft 494 kts 70°
2026-04-21 15:47 33.01118 -87.88581 37369 ft 494 kts 70°
2026-04-21 15:48 33.03058 -87.80729 37367 ft 494 kts 70°
2026-04-21 15:48 33.04999 -87.72876 37367 ft 494 kts 70°
2026-04-21 15:49 33.06944 -87.65014 37360 ft 494 kts 70°
2026-04-21 15:49 33.08884 -87.57156 37362 ft 494 kts 70°
2026-04-21 15:50 33.10813 -87.49285 37364 ft 494 kts 70°
2026-04-21 15:50 33.12366 -87.41288 37360 ft 497 kts 77°
2026-04-21 15:51 33.13549 -87.33156 37365 ft 497 kts 77°
2026-04-21 15:51 33.14750 -87.25029 37355 ft 497 kts 77°
2026-04-21 15:52 33.15942 -87.16912 37354 ft 497 kts 77°
2026-04-21 15:52 33.17125 -87.08787 37346 ft 497 kts 77°
2026-04-21 15:53 33.18300 -87.00660 37345 ft 497 kts 77°
2026-04-21 15:53 33.19472 -86.92533 37356 ft 497 kts 77°
2026-04-21 15:54 33.20639 -86.84402 37354 ft 497 kts 77°
2026-04-21 15:54 33.21795 -86.76316 37356 ft 497 kts 77°
2026-04-21 15:55 33.22946 -86.68171 37366 ft 498 kts 77°
2026-04-21 15:55 33.24093 -86.60019 37372 ft 498 kts 77°
2026-04-21 15:56 33.25235 -86.51857 37370 ft 498 kts 77°
2026-04-21 15:56 33.26378 -86.43703 37378 ft 498 kts 76°
2026-04-21 15:57 33.27521 -86.35546 37378 ft 498 kts 77°
2026-04-21 15:57 33.28648 -86.27391 37374 ft 498 kts 77°
2026-04-21 15:58 33.29763 -86.19224 37376 ft 498 kts 77°
2026-04-21 15:58 33.30328 -86.15119 37498 ft 505 kts 74°
2026-04-21 15:58 33.30909 -86.10948 37338 ft 513 kts 74°
2026-04-21 15:59 33.32075 -86.02470 37360 ft 521 kts 74°
2026-04-21 15:59 33.33246 -85.93854 37362 ft 530 kts 75°
2026-04-21 16:00 33.34421 -85.85148 37366 ft 539 kts 75°
2026-04-21 16:00 33.35609 -85.76242 37367 ft 545 kts 75°
2026-04-21 16:01 33.36797 -85.67280 37367 ft 545 kts 75°
2026-04-21 16:01 33.37984 -85.58316 37366 ft 546 kts 75°
2026-04-21 16:02 33.39162 -85.49353 37366 ft 546 kts 75°
2026-04-21 16:02 33.40335 -85.40373 37400 ft 546 kts 75°
2026-04-21 16:03 33.41513 -85.31387 37396 ft 547 kts 75°
2026-04-21 16:03 33.42690 -85.22396 37387 ft 547 kts 75°
2026-04-21 16:04 33.43848 -85.13399 37388 ft 547 kts 75°
2026-04-21 16:04 33.44996 -85.04407 37397 ft 547 kts 76°
2026-04-21 16:05 33.46138 -84.95400 37389 ft 547 kts 76°
2026-04-21 16:05 33.47276 -84.86461 37387 ft 547 kts 75°
2026-04-21 16:06 33.48414 -84.77456 37383 ft 547 kts 76°
2026-04-21 16:06 33.49540 -84.68455 37382 ft 546 kts 76°
2026-04-21 16:07 33.50652 -84.59447 37385 ft 546 kts 76°
2026-04-21 16:07 33.51765 -84.50441 37379 ft 547 kts 76°
2026-04-21 16:08 33.53426 -84.36915 37384 ft 547 kts 76°
2026-04-21 16:09 33.54528 -84.27893 37396 ft 547 kts 76°
2026-04-21 16:09 33.55619 -84.18866 37385 ft 545 kts 76°
2026-04-21 16:10 33.56690 -84.09893 37377 ft 543 kts 76°
2026-04-21 16:10 33.57761 -84.00918 37391 ft 544 kts 76°
2026-04-21 16:11 33.58821 -83.91991 37396 ft 544 kts 75°
2026-04-21 16:11 33.60641 -83.83303 37408 ft 535 kts 66°
2026-04-21 16:12 33.62422 -83.76125 37405 ft 536 kts 66°
2026-04-21 16:12 33.64881 -83.66157 37406 ft 536 kts 66°
2026-04-21 16:13 33.67213 -83.57709 37399 ft 526 kts 56°
2026-04-21 16:13 33.70729 -83.50160 37413 ft 516 kts 50°
2026-04-21 16:14 33.74365 -83.42713 37402 ft 517 kts 50°
2026-04-21 16:14 33.77985 -83.35236 37462 ft 517 kts 50°
2026-04-21 16:14 33.79786 -83.31505 37343 ft 514 kts 50°
2026-04-21 16:15 33.81570 -83.27799 37350 ft 511 kts 50°
2026-04-21 16:15 33.85187 -83.20458 37357 ft 508 kts 48°
2026-04-21 16:16 33.89061 -83.13371 37349 ft 508 kts 46°
2026-04-21 16:16 33.91070 -83.09834 37101 ft 514 kts 46°
2026-04-21 16:16 33.93082 -83.06266 36846 ft 516 kts 46°
2026-04-21 16:16 33.95075 -83.02675 36577 ft 515 kts 46°
2026-04-21 16:17 33.97047 -82.99061 35940 ft 519 kts 47°
2026-04-21 16:17 33.99017 -82.95408 35401 ft 519 kts 47°
2026-04-21 16:17 34.00974 -82.91755 34812 ft 520 kts 47°
2026-04-21 16:17 34.02937 -82.88087 34211 ft 522 kts 48°
2026-04-21 16:18 34.04884 -82.84459 33623 ft 520 kts 48°
2026-04-21 16:18 34.06864 -82.80765 33188 ft 515 kts 48°
2026-04-21 16:18 34.08785 -82.77187 32619 ft 513 kts 48°
2026-04-21 16:18 34.10717 -82.73592 32201 ft 508 kts 48°
2026-04-21 16:19 34.12630 -82.70045 31647 ft 501 kts 48°
2026-04-21 16:19 34.14513 -82.66548 30764 ft 491 kts 48°
2026-04-21 16:19 34.16329 -82.63156 30279 ft 471 kts 48°
2026-04-21 16:19 34.18073 -82.59881 29525 ft 459 kts 48°
2026-04-21 16:20 34.19803 -82.56656 29165 ft 452 kts 47°
2026-04-21 16:20 34.21500 -82.53492 28811 ft 447 kts 47°
2026-04-21 16:20 34.23189 -82.50356 28349 ft 445 kts 48°
2026-04-21 16:20 34.24872 -82.47226 27934 ft 442 kts 49°
2026-04-21 16:21 34.26541 -82.44116 27431 ft 440 kts 49°
2026-04-21 16:21 34.28197 -82.41014 27001 ft 437 kts 49°
2026-04-21 16:21 34.29832 -82.37943 26691 ft 430 kts 49°
2026-04-21 16:21 34.31423 -82.34935 26191 ft 420 kts 49°
2026-04-21 16:22 34.32981 -82.31993 25621 ft 412 kts 49°
2026-04-21 16:22 34.34509 -82.29108 25164 ft 400 kts 49°
2026-04-21 16:22 34.36003 -82.26290 24781 ft 397 kts 49°
2026-04-21 16:22 34.37497 -82.23487 24337 ft 396 kts 50°
2026-04-21 16:23 34.38988 -82.20688 23884 ft 395 kts 50°
2026-04-21 16:23 34.40470 -82.17896 23386 ft 393 kts 50°
2026-04-21 16:23 34.41939 -82.15117 22940 ft 390 kts 50°
2026-04-21 16:23 34.43396 -82.12354 22490 ft 387 kts 50°
2026-04-21 16:24 34.44842 -82.09614 22037 ft 385 kts 50°
2026-04-21 16:24 34.46280 -82.06897 21592 ft 382 kts 50°
2026-04-21 16:24 34.47709 -82.04191 21162 ft 380 kts 50°
2026-04-21 16:24 34.49132 -82.01496 20687 ft 379 kts 50°
2026-04-21 16:25 34.50547 -81.98808 20242 ft 377 kts 50°
2026-04-21 16:25 34.51953 -81.96134 19798 ft 375 kts 50°
2026-04-21 16:25 34.53352 -81.93470 19349 ft 374 kts 50°
2026-04-21 16:25 34.54745 -81.90816 18911 ft 372 kts 50°
2026-04-21 16:26 34.56134 -81.88173 18400 ft 372 kts 50°
2026-04-21 16:26 34.57533 -81.85522 17920 ft 369 kts 50°
2026-04-21 16:26 34.58892 -81.82930 17626 ft 359 kts 50°
2026-04-21 16:26 34.60213 -81.80402 16794 ft 352 kts 51°
2026-04-21 16:27 34.61511 -81.77912 16216 ft 345 kts 51°
2026-04-21 16:27 34.62766 -81.75497 15882 ft 334 kts 51°
2026-04-21 16:27 34.63995 -81.73149 15481 ft 333 kts 51°
2026-04-21 16:27 34.65241 -81.70780 15066 ft 333 kts 52°
2026-04-21 16:28 34.66485 -81.68408 14672 ft 332 kts 52°
2026-04-21 16:28 34.67720 -81.66047 14297 ft 331 kts 52°
2026-04-21 16:28 34.68953 -81.63683 13867 ft 331 kts 52°
2026-04-21 16:28 34.70182 -81.61325 13451 ft 329 kts 52°
2026-04-21 16:29 34.71006 -81.59741 13183 ft 328 kts 52°
2026-04-21 16:29 34.72616 -81.56648 12648 ft 325 kts 52°
2026-04-21 16:29 34.73822 -81.54333 12281 ft 323 kts 52°
2026-04-21 16:29 34.75018 -81.52032 11891 ft 321 kts 52°
2026-04-21 16:30 34.76135 -81.49718 11724 ft 313 kts 55°
2026-04-21 16:30 34.77158 -81.47395 11404 ft 311 kts 56°
2026-04-21 16:30 34.78061 -81.45013 11067 ft 313 kts 66°
2026-04-21 16:30 34.78655 -81.42471 10676 ft 311 kts 68°
2026-04-21 16:31 34.79253 -81.39964 10220 ft 307 kts 67°
2026-04-21 16:31 34.79860 -81.37491 9760 ft 302 kts 66°
2026-04-21 16:31 34.80465 -81.35057 9289 ft 300 kts 66°
2026-04-21 16:31 34.81074 -81.32634 8908 ft 299 kts 66°
2026-04-21 16:32 34.81478 -81.31029 8665 ft 299 kts 66°
2026-04-21 16:32 34.82081 -81.28621 8328 ft 296 kts 67°
2026-04-21 16:32 34.82678 -81.26228 7937 ft 296 kts 66°
2026-04-21 16:32 34.83270 -81.23850 7588 ft 294 kts 66°
2026-04-21 16:33 34.83852 -81.21496 7403 ft 286 kts 66°
2026-04-21 16:33 34.84411 -81.19218 7280 ft 275 kts 66°
2026-04-21 16:33 34.84949 -81.17023 7167 ft 266 kts 66°
2026-04-21 16:33 34.85636 -81.14238 7006 ft 253 kts 65°
2026-04-21 16:34 34.86009 -81.12877 6952 ft 250 kts 63°
2026-04-21 16:34 34.86605 -81.10896 6859 ft 248 kts 61°
2026-04-21 16:34 34.87217 -81.08939 6767 ft 247 kts 61°
2026-04-21 16:34 34.87833 -81.06984 6681 ft 247 kts 61°
2026-04-21 16:35 34.88446 -81.05025 6610 ft 247 kts 62°
2026-04-21 16:35 34.89052 -81.03070 6518 ft 246 kts 62°
2026-04-21 16:35 34.89653 -81.01110 6431 ft 247 kts 63°
2026-04-21 16:35 34.90250 -80.99153 6346 ft 246 kts 63°
2026-04-21 16:36 34.90839 -80.97220 6288 ft 238 kts 63°
2026-04-21 16:36 34.91400 -80.95370 6183 ft 235 kts 64°
2026-04-21 16:36 34.92110 -80.93636 6123 ft 214 kts 47°
2026-04-21 16:36 34.93063 -80.92442 6036 ft 188 kts 30°
2026-04-21 16:37 34.94185 -80.91683 5878 ft 185 kts 13°
2026-04-21 16:37 34.95421 -80.91351 5688 ft 181 kts 358°
2026-04-21 16:37 34.96669 -80.91408 5463 ft 179 kts 351°
2026-04-21 16:37 34.97918 -80.91515 5227 ft 181 kts 351°
2026-04-21 16:38 34.99178 -80.91622 4986 ft 182 kts 351°
2026-04-21 16:38 35.00444 -80.91730 4741 ft 182 kts 352°
2026-04-21 16:38 35.01711 -80.91838 4485 ft 183 kts 351°
2026-04-21 16:38 35.02975 -80.91945 4236 ft 182 kts 351°
2026-04-21 16:39 35.04241 -80.92054 3987 ft 183 kts 351°
2026-04-21 16:39 35.05510 -80.92162 3747 ft 179 kts 352°
2026-04-21 16:39 35.06713 -80.92263 3515 ft 171 kts 350°
2026-04-21 16:39 35.07903 -80.92366 3271 ft 172 kts 351°
2026-04-21 16:40 35.09080 -80.92466 3048 ft 161 kts 350°
2026-04-21 16:40 35.10153 -80.92556 2822 ft 149 kts 348°
2026-04-21 16:40 35.11152 -80.92642 2631 ft 142 kts 352°
2026-04-21 16:40 35.12136 -80.92727 2436 ft 141 kts 348°
2026-04-21 16:41 35.13126 -80.92813 2247 ft 142 kts 350°
2026-04-21 16:41 35.14103 -80.92897 2043 ft 141 kts 347°
2026-04-21 16:41 35.15077 -80.92981 1847 ft 141 kts 353°
2026-04-21 16:41 35.16062 -80.93066 1676 ft 144 kts 352°
2026-04-21 16:42 35.17053 -80.93151 1444 ft 143 kts 354°
2026-04-21 16:42 35.18043 -80.93247 1218 ft 142 kts 355°
2026-04-21 16:42 35.19022 -80.93330 1010 ft 139 kts
2026-04-21 16:42 35.19978 -80.93402 803 ft 140 kts 356°
2026-04-21 16:43 35.20911 -80.93483 736 ft 116 kts 353°
2026-04-21 16:43 35.21549 -80.93538 735 ft 67 kts 356°
2026-04-21 16:43 35.21841 -80.93565 736 ft 18 kts 355°
2026-04-21 16:43 35.21883 -80.93569 737 ft 17 kts 356°
2026-04-21 16:44 35.22009 -80.93588 736 ft 13 kts 331°
2026-04-21 16:44 35.21995 -80.93682 733 ft 14 kts 229°
2026-04-21 16:44 35.21926 -80.93777 732 ft 16 kts 228°
2026-04-21 16:44 35.21858 -80.93873 732 ft 14 kts 230°
2026-04-21 16:45 35.21821 -80.93979 732 ft 13 kts 276°
2026-04-21 16:45 35.21841 -80.94082 732 ft 13 kts 259°
2026-04-21 16:45 35.21828 -80.94140 732 ft 3 kts 253°
2026-04-21 16:45 35.21825 -80.94152 732 ft 2 kts 253°
2026-04-21 16:46 35.21823 -80.94161 732 ft 1 kts 253°
2026-04-21 16:46 35.21822 -80.94164 732 ft 0 kts 253°